Change the Weather History Date:

Thursday, February 28, 2013

  Actual Average Record
Temperature  
Mean Temperature 39 °F 31 °F  
Max Temperature 42 °F 37 °F 49 °F (1992)
Min Temperature 36 °F 26 °F -4 °F (2007)
Degree Days  
Heating Degree Days 26 34  
Month to date heating degree days 817 978  
Since 1 July heating degree days 6071 5837  
Moisture  
Dew Point 33 °F    
Average Humidity 77    
Maximum Humidity 92    
Minimum Humidity 62    
Precipitation  
Precipitation 0.12 in 0.14 in 0.81 in (1992)
Month to date precipitation 6.61 4.13  
Year to date precipitation 14.31 9.48  
Snow  
Snow 0.00 in 0.50 in 3.30 in (1965)
Month to date snowfall 1.4 16.8  
Since 1 July snowfall 63.4 74.0  
Snow Depth 0.00 in    
Sea Level Pressure  
Sea Level Pressure 29.62 in    
Wind  
Wind Speed 16 mph (ESE)    
Max Wind Speed 25 mph    
Max Gust Speed 33 mph    
Visibility 9 miles    
Events Rain    
T = Trace of Precipitation, MM = Missing Value Source: NWS Daily Summary

Daily Weather History Graph

Daily Weather History Graph

Search for Another Location

Airport or City:

Trip Planner

Search our weather history database for the weather conditions in past years. The results will help you decide how hot, cold, wet, or windy it might be!

Date:

Astronomy

Feb. 28, 2013 Rise Set
Actual Time 6:55 AM AKST 5:27 PM AKST
Civil Twilight 6:15 AM AKST 6:07 PM AKST
Nautical Twilight 5:29 AM AKST 6:53 PM AKST
Astronomical Twilight 4:43 AM AKST 7:39 PM AKST
Moon 10:04 PM AKST (2/28) 7:17 AM AKST (2/28)
Length of Visible Light 11h 52m
Length of Day
10h 32m
Waning Gibbous, 90% of the Moon is Illuminated
Feb 28
Waning Gibbous
Mar 4
Last Quarter
Mar 11
New
Mar 19
First Quarter
Mar 27
Full

Hourly Weather History & Observations

Time (AKST) Temp. Windchill Dew Point Humidity Pressure Visibility Wind Dir Wind Speed Gust Speed Precip Events Conditions
12:17 AM 37.0 °F 28.5 °F 34.0 °F 89% 29.74 in 10.0 mi East 13.8 mph - 0.01 in Rain Light Rain
12:53 AM 37.9 °F 27.6 °F 34.0 °F 86% 29.75 in 10.0 mi ESE 20.7 mph 24.2 mph 0.01 in   Overcast
1:53 AM 37.9 °F 28.5 °F 34.0 °F 86% 29.76 in 10.0 mi East 17.3 mph - 0.00 in Rain Light Rain
3:36 AM 37.0 °F 27.0 °F 34.0 °F 89% 29.75 in 6.0 mi East 18.4 mph 26.5 mph 0.02 in Rain Light Rain
3:53 AM 37.0 °F 27.0 °F 34.0 °F 89% 29.74 in 7.0 mi East 18.4 mph - 0.02 in Rain Light Rain
4:53 AM 37.9 °F 28.5 °F 34.0 °F 86% 29.70 in 8.0 mi ESE 17.3 mph 33.4 mph 0.01 in Rain Light Rain
5:53 AM 37.9 °F 27.6 °F 34.0 °F 86% 29.68 in 7.0 mi ESE 20.7 mph 26.5 mph 0.02 in Rain Light Rain
6:53 AM 37.9 °F 30.5 °F 34.0 °F 86% 29.65 in 10.0 mi East 11.5 mph - 0.01 in   Overcast
7:15 AM 37.0 °F 28.5 °F 34.0 °F 89% 29.63 in 10.0 mi East 13.8 mph - N/A   Overcast
7:53 AM 37.9 °F 29.6 °F 33.1 °F 83% 29.58 in 10.0 mi East 13.8 mph - N/A   Overcast
8:53 AM 39.0 °F 31.4 °F 32.0 °F 76% 29.53 in 10.0 mi SE 12.7 mph 16.1 mph N/A   Overcast
9:53 AM 42.1 °F 34.2 °F 30.9 °F 65% 29.50 in 10.0 mi ESE 16.1 mph - N/A   Overcast
10:53 AM 41.0 °F 32.5 °F 30.9 °F 67% 29.45 in 10.0 mi East 17.3 mph - 0.00 in Rain Light Rain
11:53 AM 41.0 °F 32.2 °F 30.0 °F 65% 29.44 in 10.0 mi East 18.4 mph 27.6 mph 0.00 in Rain Light Rain
12:45 PM 41.0 °F 31.9 °F 30.0 °F 65% 29.43 in 10.0 mi East 19.6 mph 27.6 mph 0.00 in Rain Light Rain
12:53 PM 39.9 °F 31.1 °F 30.0 °F 68% 29.43 in 10.0 mi East 17.3 mph 27.6 mph 0.00 in Rain Light Rain
1:53 PM 39.9 °F 31.4 °F 32.0 °F 73% 29.42 in 10.0 mi SE 16.1 mph - 0.00 in Rain Light Rain
2:53 PM 37.9 °F 28.5 °F 34.0 °F 86% 29.46 in 8.0 mi ESE 17.3 mph - 0.02 in Rain Light Rain
3:53 PM 36.0 °F 24.4 °F 34.0 °F 93% 29.51 in 9.0 mi ESE 23.0 mph - 0.03 in Rain Light Rain
4:53 PM 37.0 °F 27.4 °F 34.0 °F 89% 29.56 in 9.0 mi ESE 17.3 mph - 0.01 in   Mostly Cloudy
5:51 PM 37.4 °F 28.2 °F 35.6 °F 93% 29.59 in 9.0 mi ESE 16.1 mph - N/A   Overcast
5:53 PM 37.9 °F 28.2 °F 35.1 °F 89% 29.60 in 9.0 mi ESE 18.4 mph - N/A   Overcast
6:53 PM 37.9 °F 29.6 °F 35.1 °F 89% 29.64 in 9.0 mi ESE 13.8 mph - 0.00 in   Overcast
7:53 PM 37.9 °F 32.7 °F 35.1 °F 89% 29.68 in 9.0 mi SE 6.9 mph - 0.00 in   Overcast
8:53 PM 39.0 °F 32.8 °F 34.0 °F 82% 29.73 in 9.0 mi East 9.2 mph - 0.00 in   Overcast
9:53 PM 37.9 °F 31.5 °F 34.0 °F 86% 29.77 in 9.0 mi ESE 9.2 mph - 0.00 in   Overcast
10:53 PM 37.4 °F 30.3 °F 33.8 °F 87% 29.80 in 10.0 mi East 10.4 mph - N/A   Overcast
11:53 PM 37.9 °F 29.6 °F 33.1 °F 83% 29.83 in 10.0 mi ESE 13.8 mph - N/A   Overcast